Location: ?????
(55.8833°N, 37.6500°E)
Time: 18:26:42
(UTC+00:00)

STARLINK-1056 - Pass Details

Date: 14 July 2020
Orbit: 549 x 550 km, 53.0° (Epoch: 08 August)

Event Time Altitude Azimuth Distance (km) Brightness Sun altitude
Rises 19:27:16 0° 280° (W) 2,722 7.8 -8.0°
Reaches altitude 10° 19:29:52 10° 265° (W) 1,825 6.6 -8.2°
Maximum altitude 19:33:04 22° 214° (SW) 1,230 5.2 -8.4°
Enters shadow 19:36:06 11° 165° (SSE) 1,767 5.6 -8.6°
